Total_Precipitation_Accumulation
1.58 1.94 1.87 1.68 1.58 1.55 1.45 1.56 1.90 1.82 1.79 1.87 1.85 1.83 1.85 1.87 1.88 1.79 1.72 1.73 1.67 1.61
0.57 0.70 0.85 0.90 0.91 1.02 1.29 1.22 1.34 1.47 1.39 1.41 1.44 1.41 1.49 1.50 1.45 1.59 1.66 1.56 1.48 1.49
0.28 0.32 0.39 0.31 0.28 0.30 0.45 0.61 0.72 0.85 0.91 0.98 1.06 1.21 1.31 1.32 1.39 1.52 1.58 1.62 1.70 1.67
0.34 0.32 0.34 0.28 0.13 0.14 0.13 0.16 0.18 0.18 0.27 0.35 0.40 0.54 0.76 0.91 1.10 1.29 1.51 1.83 2.11 2.25
0.57 0.47 0.41 0.39 0.21 0.17 0.19 0.20 0.19 0.18 0.19 0.24 0.27 0.27 0.27 0.32 0.39 0.48 0.59 0.81 1.06 1.17
0.90 0.72 0.62 0.45 0.37 0.26 0.29 0.37 0.56 0.38 0.31 0.26 0.23 0.19 0.21 0.26 0.36 0.47 0.58 0.65 0.72 0.84
0.92 0.88 0.75 0.57 0.55 0.46 0.41 0.40 0.56 0.93 0.51 0.42 0.39 0.34 0.26 0.27 0.27 0.34 0.49 0.49 0.54 0.54
0.54 0.77 0.64 0.48 0.66 0.56 0.41 0.48 0.43 0.51 0.60 0.53 0.46 0.61 0.48 0.37 0.40 0.35 0.56 0.87 0.85 0.95
0.49 0.54 0.62 0.51 0.55 0.51 0.51 0.68 0.49 0.52 0.45 0.42 0.50 0.92 0.89 0.67 0.64 0.69 0.60 0.94 1.03 1.03
0.57 0.53 0.48 0.42 0.46 0.39 0.45 0.62 0.66 0.60 0.68 0.57 0.60 0.87 0.98 0.83 0.52 0.62 0.67 0.51 0.55 0.43
1.04 0.87 0.76 0.62 0.61 0.44 0.47 0.55 0.60 0.61 0.81 0.91 1.06 0.97 0.99 0.81 0.41 0.37 0.48 0.29 0.21 0.16
1.26 1.16 1.21 1.23 1.04 0.85 0.83 0.85 0.93 0.83 0.83 0.89 1.10 0.95 1.03 0.62 0.43 0.25 0.14 0.08 0.04 0.04
1.37 1.12 1.02 0.88 0.94 0.82 0.74 0.77 0.82 0.79 0.74 0.71 0.65 0.58 0.64 0.54 0.27 0.09 0.04 0.03 0.03 0.04
0.96 1.05 0.89 0.83 0.67 0.69 0.59 0.47 0.44 0.41 0.38 0.27 0.19 0.12 0.11 0.09 0.06 0.05 0.05 0.03 0.02 0.02